Weather History for KRUE - December, 2012

Change the Weather History Date:

Monday, December 3, 2012

  Actual Average (KHOT) Record (KHOT)
Temperature  
Mean Temperature 65 °F -  
Max Temperature 77 °F 56 °F 80 °F (2005)
Min Temperature 53 °F 35 °F 19 °F (1985)
Growing Degree Days 15 (Base 50)    
Moisture  
Dew Point 57 °F    
Average Humidity 83    
Maximum Humidity 100    
Minimum Humidity 52    
Precipitation  
Precipitation 0.00 in - - ()
Sea Level Pressure  
Sea Level Pressure 30.02 in    
Wind  
Wind Speed 2 mph (South)    
Max Wind Speed 14 mph    
Max Gust Speed 23 mph    
Visibility 6 miles    
Events Fog    
Averages and records for this station are not official NWS values.
T = Trace of Precipitation, MM = Missing Value Source: NWS Daily Summary

Daily Weather History Graph

Daily Weather History Graph

Search for Another Location

Airport or City:

Trip Planner

Search our weather history database for the weather conditions in past years. The results will help you decide how hot, cold, wet, or windy it might be!

Date:

Astronomy

Dec. 03, 2012 Rise Set
Actual Time 7:04 AM CST 4:59 PM CST
Civil Twilight 6:36 AM CST 5:27 PM CST
Nautical Twilight 6:05 AM CST 5:59 PM CST
Astronomical Twilight 5:34 AM CST 6:30 PM CST
Moon 9:41 PM CST (12/3) 10:33 AM CST (12/3)
Length of Visible Light 10h 50m
Length of Day
9h 55m
Waning Gibbous, 78% of the Moon is Illuminated
Dec 3
Waning Gibbous
Dec 6
Last Quarter
Dec 13
New
Dec 19
First Quarter
Dec 28
Full

Hourly Weather History & Observations

Time (CST) Temp. Dew Point Humidity Pressure Visibility Wind Dir Wind Speed Gust Speed Precip Events Conditions
12:01 AM 59.0 °F 57.2 °F 94% 30.05 in 1.8 mi Calm Calm - N/A   Clear
12:13 AM 57.2 °F 55.4 °F 94% 30.05 in 0.8 mi Calm Calm - N/A   Clear
12:20 AM 57.2 °F 55.4 °F 94% 30.05 in 1.5 mi Calm Calm - N/A   Clear
12:31 AM 57.2 °F 55.4 °F 94% 30.05 in 3.0 mi Calm Calm - N/A   Clear
12:38 AM 57.2 °F 57.2 °F 100% 30.05 in 1.5 mi Calm Calm - N/A   Clear
12:53 AM 57.9 °F 57.0 °F 97% 30.03 in 1.2 mi Calm Calm - N/A   Clear
12:59 AM 57.2 °F 55.4 °F 94% 30.05 in 0.5 mi Calm Calm - N/A Fog Fog
1:08 AM 55.4 °F 55.4 °F 100% 30.05 in 0.5 mi Calm Calm - N/A Fog Fog
1:14 AM 57.2 °F 55.4 °F 94% 30.05 in 2.0 mi Calm Calm - N/A   Mostly Cloudy
1:42 AM 57.2 °F 55.4 °F 94% 30.05 in 4.0 mi Calm Calm - N/A   Mostly Cloudy
1:47 AM 55.4 °F 55.4 °F 100% 30.05 in 1.8 mi Calm Calm - N/A   Scattered Clouds
1:53 AM 57.0 °F 55.0 °F 93% 30.03 in 1.5 mi Calm Calm - N/A   Scattered Clouds
2:09 AM 55.4 °F 53.6 °F 94% 30.05 in 0.8 mi Calm Calm - N/A   Mist
2:21 AM 55.4 °F 53.6 °F 94% 30.05 in 1.2 mi Calm Calm - N/A   Scattered Clouds
2:33 AM 53.6 °F 53.6 °F 100% 30.04 in 1.0 mi Calm Calm - N/A   Mist
2:37 AM 53.6 °F 51.8 °F 94% 30.04 in 2.5 mi Calm Calm - N/A   Partly Cloudy
2:44 AM 53.6 °F 51.8 °F 94% 30.04 in 1.0 mi Calm Calm - N/A   Mist
2:51 AM 53.6 °F 53.6 °F 100% 30.04 in 0.2 mi Calm Calm - N/A Fog Fog
2:53 AM 54.0 °F 53.1 °F 97% 30.03 in 0.2 mi Calm Calm - N/A Fog Fog
3:01 AM 55.4 °F 53.6 °F 94% 30.04 in 2.5 mi Calm Calm - N/A   Scattered Clouds
3:08 AM 57.2 °F 55.4 °F 94% 30.04 in 5.0 mi ESE 3.5 mph - N/A   Scattered Clouds
3:16 AM 60.8 °F 59.0 °F 94% 30.04 in 6.0 mi ESE 3.5 mph - N/A   Mostly Cloudy
3:53 AM 62.1 °F 60.1 °F 93% 30.02 in 8.0 mi ESE 3.5 mph - N/A   Overcast
4:53 AM 60.1 °F 57.9 °F 93% 30.02 in 6.0 mi ESE 3.5 mph - N/A   Overcast
5:53 AM 61.0 °F 59.0 °F 93% 30.02 in 9.0 mi Calm Calm - N/A   Overcast
6:53 AM 63.0 °F 60.1 °F 90% 30.03 in 10.0 mi Calm Calm - N/A   Overcast
7:33 AM 64.4 °F 60.8 °F 88% 30.05 in 10.0 mi Calm Calm - N/A   Overcast
7:53 AM 64.9 °F 60.1 °F 84% 30.04 in 10.0 mi Calm Calm - N/A   Overcast
8:13 AM 66.2 °F 60.8 °F 83% 30.06 in 10.0 mi Calm Calm - N/A   Overcast
8:53 AM 66.9 °F 60.1 °F 79% 30.04 in 10.0 mi ENE 3.5 mph - N/A   Overcast
9:36 AM 71.6 °F 60.8 °F 69% 30.04 in 10.0 mi South 6.9 mph - N/A   Overcast
9:53 AM 71.1 °F 59.0 °F 66% 30.03 in 10.0 mi SSW 4.6 mph - N/A   Overcast
10:53 AM 72.0 °F 60.1 °F 66% 30.03 in 10.0 mi South 10.4 mph - N/A   Overcast
11:53 AM 73.0 °F 59.0 °F 61% 30.01 in 10.0 mi SW 10.4 mph 23.0 mph N/A   Mostly Cloudy
12:53 PM 75.9 °F 57.9 °F 54% 29.97 in 10.0 mi South 13.8 mph 23.0 mph N/A   Mostly Cloudy
1:53 PM 77.0 °F 59.0 °F 54% 29.94 in 10.0 mi South 5.8 mph - N/A   Mostly Cloudy
2:53 PM 75.9 °F 57.0 °F 52% 29.93 in 10.0 mi South 6.9 mph 20.7 mph N/A   Mostly Cloudy
3:53 PM 75.9 °F 59.0 °F 56% 29.92 in 10.0 mi Variable 6.9 mph 18.4 mph N/A   Mostly Cloudy
4:53 PM 73.9 °F 59.0 °F 59% 29.93 in 10.0 mi South 8.1 mph - N/A   Mostly Cloudy
5:53 PM 72.0 °F 57.9 °F 61% 29.94 in 10.0 mi Variable 4.6 mph - N/A   Overcast
6:53 PM 72.0 °F 60.1 °F 66% 29.96 in 10.0 mi SSW 10.4 mph 17.3 mph N/A   Overcast
7:53 PM 71.1 °F 60.1 °F 68% 29.98 in 10.0 mi South 4.6 mph - N/A   Mostly Cloudy
8:53 PM 70.0 °F 60.1 °F 71% 30.00 in 10.0 mi South 3.5 mph - N/A   Overcast
9:53 PM 68.0 °F 60.1 °F 76% 30.01 in 10.0 mi Calm Calm - N/A   Overcast
10:53 PM 66.9 °F 60.1 °F 79% 30.00 in 10.0 mi Calm Calm - N/A   Overcast
11:53 PM 68.0 °F 60.1 °F 76% 30.00 in 10.0 mi SSE 3.5 mph - N/A   Overcast